Regional Weather Roundup
Issued by NWS Nashville, TN

Home | Current Version | Previous Version | Text Only | Print | Product List | Glossary On
Versions: 1 2 3 4 5 6 7 8 9 10 11 12 13 14 15 16 17 18 19 20 21 22 23 24 25 26 27 28 29 30 31 32 33 34 35 36 37 38 39 40 41 42 43 44 45 46 47 48 49 50
624
ASUS44 KOHX 092010
RWROHX
MIDDLE TENNESSEE HOURLY WEATHER ROUNDUP
NATIONAL WEATHER SERVICE NASHVILLE TN
200 PM CST FRI DEC 09 2016

NOTE: "FAIR" INDICATES FEW OR NO CLOUDS BELOW 12,000 FEET WITH
NO SIGNIFICANT WEATHER AND/OR OBSTRUCTIONS TO VISIBILITY.

* THESE REPORTS ARE NOT UNDER NWS QUALITY CONTROL AND MAY NOT
  REPORT WEATHER SUCH AS PRECIPITATION AND FOG.


TNZ005>011-023>034-057-059-062>066-078-080-092100
...NORTHERN MIDDLE TENNESSEE...

CITY           SKY/WX    TMP DP  RH WIND       PRES   REMARKS
CLARKSVILLE    SUNNY     33  14  45 NW8       30.56F WCI  26
CROSSVILLE     SUNNY     30  14  51 VRB7      30.44F WCI  23
GALLATIN       SUNNY     34  16  47 VRB5      30.57F WCI  30
LEBANON        SUNNY     32  16  52 NW6       30.52F WCI  26
NASHVILLE      SUNNY     37  15  40 NW8       30.55F WCI  31
PORTLAND       SUNNY     32  16  51 W7        30.54F WCI  26
SMYRNA         SUNNY     35  16  45 N8        30.56F WCI  29
SPRINGFIELD    SUNNY     32  16  51 W8        30.54F WCI  25
WEST NASHVILLE SUNNY     34  14  44 SW7       30.55F WCI  28
$$
TNZ056-058-060-061-075>077-079-093>097-092100
...SOUTHERN MIDDLE TENNESSEE...

CITY           SKY/WX    TMP DP  RH WIND       PRES   REMARKS
COLUMBIA       SUNNY     34  18  51 N5        30.52F WCI  30
FAYETTEVILLE   SUNNY     36  18  48 N8        30.50F WCI  29
MCMINNVILLE    SUNNY     34  16  47 N9          N/A  WCI  26
MURFREESBORO   SUNNY     35  16  46 NW6       30.54F WCI  30
SHELBYVILLE    SUNNY     36  19  51 NW9       30.52F WCI  29
TULLAHOMA      SUNNY     34  14  44 NW10      30.50S WCI  26
WINCHESTER     SUNNY     34  18  51 N8        30.50S WCI  27
$$


...KEY TO REMARKS...
VSB - VISIBILITY IN MILES
WCI - WIND CHILL INDEX
HX  - HEAT INDEX





USA.gov is the U.S. government's official web portal to all federal, state and local government web resources and services.